| time (UTC) | temp F | wind direction | speed MPH | gust MPH | rain 1hr in | rain 24hr in | rain mn in | humidity % | barometer mb |
| 20260508043005 | 48 | 157 | 0.0 | 0.0 | 0.00 | 0.34 | 0.00 | 88 | 1010.0 |
| 20260508040006 | 48 | 157 | 0.0 | 1.0 | 0.00 | 0.34 | 0.00 | 89 | 1009.7 |
| 20260508030005 | 48 | 157 | 0.0 | 0.0 | 0.00 | 0.34 | 0.00 | 89 | 1009.9 |
| 20260508023005 | 47 | 157 | 0.0 | 2.0 | 0.00 | 0.34 | 0.00 | 89 | 1009.7 |
| 20260508020006 | 48 | 157 | 0.0 | 0.0 | 0.00 | 0.34 | 0.00 | 89 | 1009.8 |
| 20260508013005 | 48 | 157 | 0.0 | 0.0 | 0.00 | 0.34 | 0.00 | 89 | 1010.2 |
| 20260508010005 | 48 | 157 | 0.0 | 0.0 | 0.00 | 0.34 | 0.00 | 89 | 1010.4 |
| 20260508003005 | 48 | 157 | 0.0 | 0.0 | 0.00 | 0.34 | 0.00 | 89 | 1010.6 |
| 20260507233004 | 49 | 157 | 0.0 | 0.0 | 0.00 | 0.34 | 0.00 | 88 | 1011.2 |
| 20260507230007 | 50 | 157 | 0.0 | 0.0 | 0.00 | 0.34 | 0.00 | 88 | 1011.4 |
| 20260507223004 | 50 | 157 | 0.0 | 0.0 | 0.00 | 0.34 | 0.00 | 88 | 1011.5 |
| 20260507220005 | 50 | 157 | 0.0 | 0.0 | 0.00 | 0.34 | 0.00 | 86 | 1011.4 |
| 20260507203005 | 53 | 157 | 0.0 | 0.0 | 0.00 | 0.34 | 0.34 | 81 | 1010.6 |
| 20260507200005 | 54 | 157 | 0.0 | 0.0 | 0.00 | 0.34 | 0.34 | 79 | 1010.0 |
| 20260507193005 | 55 | 157 | 0.0 | 0.0 | 0.00 | 0.34 | 0.34 | 76 | 1009.5 |
| 20260507180005 | 57 | 158 | 0.0 | 2.0 | 0.00 | 0.34 | 0.34 | 76 | 1008.7 |
| 20260507170005 | 57 | 167 | 0.0 | 2.0 | 0.00 | 0.34 | 0.34 | 84 | 1008.8 |
| 20260507153005 | 52 | 167 | 0.0 | 3.0 | 0.02 | 0.34 | 0.34 | 88 | 1008.0 |
| 20260507150006 | 52 | 165 | 0.0 | 3.0 | 0.12 | 0.33 | 0.33 | 88 | 1008.5 |
| 20260507143004 | 52 | 165 | 0.0 | 5.0 | 0.17 | 0.32 | 0.32 | 87 | 1008.8 |
| 20260507130004 | 61 | 170 | 0.0 | 12.0 | 0.00 | 0.00 | 0.00 | 63 | 1007.9 |
| 20260507123004 | 64 | 15 | 1.0 | 5.0 | 0.00 | 0.00 | 0.00 | 58 | 1007.9 |
| 20260507120006 | 65 | 15 | 0.0 | 6.0 | 0.00 | 0.00 | 0.00 | 56 | 1007.8 |
| 20260507113006 | 65 | 15 | 1.0 | 7.0 | 0.00 | 0.00 | 0.00 | 58 | 1008.4 |
| 20260507110006 | 64 | 13 | 0.0 | 5.0 | 0.00 | 0.00 | 0.00 | 61 | 1009.0 |
| 20260507103005 | 63 | 13 | 0.0 | 5.0 | 0.00 | 0.00 | 0.00 | 63 | 1009.4 |
| 20260507100005 | 61 | 13 | 0.0 | 5.0 | 0.00 | 0.00 | 0.00 | 65 | 1009.6 |
| 20260507090005 | 57 | 11 | 0.0 | 3.0 | 0.00 | 0.00 | 0.00 | 72 | 1009.6 |
| 20260507083005 | 56 | 10 | 0.0 | 3.0 | 0.00 | 0.00 | 0.00 | 73 | 1009.5 |
| 20260507080005 | 55 | 9 | 0.0 | 0.0 | 0.00 | 0.00 | 0.00 | 74 | 1009.6 |
| 20260507073005 | 54 | 9 | 0.0 | 2.0 | 0.00 | 0.00 | 0.00 | 75 | 1009.6 |
| 20260507070009 | 54 | 9 | 0.0 | 0.0 | 0.00 | 0.00 | 0.00 | 75 | 1009.6 |
| 20260507063004 | 53 | 9 | 0.0 | 2.0 | 0.00 | 0.00 | 0.00 | 75 | 1009.3 |
| 20260507060004 | 53 | 9 | 0.0 | 2.0 | 0.00 | 0.00 | 0.00 | 75 | 1009.2 |
| 20260507053004 | 53 | 9 | 0.0 | 5.0 | 0.00 | 0.00 | 0.00 | 74 | 1009.0 |
| 20260507050005 | 53 | 5 | 0.0 | 7.0 | 0.00 | 0.00 | 0.00 | 74 | 1009.0 |